Location: Dal�� Lhota
(48.7500°N, 14.0167°E)
Time: 18:13:23
(UTC+00:00)

Vanguard 3 - Pass Details

Date: 05 August 2021
Orbit: 510 x 3260 km, 33.3° (Epoch: 20 September)

Event Time Altitude Azimuth Distance (km) Brightness Sun altitude
Rises 19:40:47 0° 266° (W) 6,126 12.4 -9.8°
Reaches altitude 10° 19:44:45 10° 260° (W) 5,420 11.9 -10.3°
Maximum altitude 20:00:15 41° 198° (SSW) 4,104 10.5 -12.2°
Enters shadow 20:15:00 16° 142° (SE) 5,573 10.7 -13.9°
Drops below altitude 10° 20:17:32 10° 138° (SE) 5,981 - -14.2°
Sets 20:22:13 0° 131° (SE) 6,789 - -14.7°
